Погода в Фалуне

Швеция     60°36′11″N   15°37′28″E
темп.,
°C
ветер,
м/с
пор.,
м/с
влажн.,
%
обл.,
%
осадки,
мм/ч
давл.,
гПа
погр.,
м
13 июня, вс
вс1323:00+10ссз226783 0.0 100621
02:00+9ссз266728 0.0 1009182
05:00+10ссз3106212 0.0 1011961
08:00+12ссз484837 0.0 10131177
11:00+16ссз473623 0.0 10142198
14:00+19сз363073 0.0 10152655
17:00+20з253080 0.0 10142560
20:00+18зюз25422 0.0 1014296
14 июня, пн
пн1423:00+12юз3115883 0.0 1014300
02:00+10ююз2106416 0.0 1013273
05:00+11ююз312865 0.0 1011408
08:00+16юз41371100 0.0 1010610
11:00+21юз61053100 0.0 10081467
14:00+21ююз71158100 0.2 10061732
17:00+16ююз81882100 0.6 10031541
20:00+14юз8168980 2.4 10001287
15 июня, вт
вт1523:00+8сз61390100 1.3 1003770
02:00+8з398998 1.3 1005424
05:00+8зюз388797 0.0 1007313
08:00+13зюз365667 0.0 1008756
11:00+17зюз46396 0.0 10082106
14:00+19з473097 0.0 10082908
17:00+20з372781 0.0 10092826
20:00+18с354496 0.0 1010337
16 июня, ср
ср1623:00+10ссв397894 0.0 1015319
02:00+7св128083 0.0 101664
05:00+8в176999 0.0 1016316
08:00+12юв356812 0.0 1016683
11:00+18ююз46435 0.0 10151473
14:00+21юз463447 0.0 10141617
17:00+23юз58315 0.0 10131770
20:00+20юз4844100 0.0 1014851
17 июня, чт
чт1723:00+13ююз276442 0.0 1016144
02:00+11ююз277090 0.0 1017173
05:00+12юз3127427 0.0 1017493
08:00+17юз59585 0.0 1017791
11:00+22юз57365 0.0 10171285
14:00+25юз57313 0.0 10171630
17:00+25ююз56335 0.0 10161646
20:00+22ююз48441 0.0 1016625